FENGYUN 1C DEB, 29996

Orbit data source: Space-Track

FENGYUN 1C DEB, 29996 is space debris in SSO originally from a launch on Mon, 10 May 1999 UTC launched from the Taiyaun Space Center, China (TSC). Fengyun 1C debris stems from the Chinese weather satellite Fengyun-1C, which was intentionally destroyed by a Chinese anti-satellite missile in 2007. This event dramatically increased the amount of space debris, with thousands of trackable fragments posing hazards to satellites and human spaceflight. The Fengyun 1C debris cloud has become a focal point in discussions about space sustainability and the need for international regulations to prevent the creation of new debris.

Loading next visibility...
Identifier
29996, 1999-025LW
Orbit
SSO
Country
Flag of CNCN / PRC
Related business
Manufacturer
Unknown
Mission
Spacecraft
Bus & Motor
Unknown
Mass
Unknown
Launch date (UTC)
1999-05-10 (27 years ago)
Launch vehicle
Unknown
Launch site
Taiyaun Space Center, China (TSC)
Object type
Payload
Rocket body
Debris
Shape & HBR
Unknown shape, 0.1 m
Radar Cross Section
Small (<0.1 m²)

Expand to show TLE details & history
Last TLE update: 21 hours ago

TLE from 21 hours ago
0 FENGYUN 1C DEB
1 29996U 99025LW  26070.63373883  .00003440  00000-0  18176-2 0  9992
2 29996  99.2973 115.9791 0132682 199.0502 287.2189 14.10096628973897
Epoch: 2026-03-11T15:12Z
TLE epoch observation values (Epoch: 2026-03-11T15:12:35.034Z)
Latitude
54.22285°
Longitude
-88.40177°
Altitude
840.652 km
Speed
7.452 km/s
True Right ascension
20h 36m 09s
True Declination
54° 03' 41"
Sunlit
Object was in daylight at epoch
Visualization orbit readout
Latitude
Unknown
Longitude
Unknown
Altitude
Unknown
Speed
Unknown
Apparent Right ascension
Unknown
Apparent Declination
Unknown
Sunlit
N/A
Visualization observer readout
Local Sidereal Time
17:02:48
Azimuth
Unknown
Elevation
Unknown
Doppler factor
Unknown
Orbital elements
Apogee altitude
952.228 km
Perigee altitude
760.254 km
Semi-major axis
7,234.378 km
Eccentricity
0.01327
Inclination
99.2973°
RAAN
115.9791°
Arg. of periapsis
199.0502°
True anomaly
285.75961°
Mean anomaly
287.2189°
Eccentric anomaly
286.48996°
Mean motion
3.52729 °/min
Orbital period
102.06 mins
BSTAR
0.0018176
Loading maneuver chart data...
Computing Atmospheric mass density...

Documentation

Showing up to 5 results
|